Regional Weather Roundup
Issued by NWS Wakefield, VA

Home | Current Version | Previous Version | Text Only | Print | Product List | Glossary Off
Versions: 1 2 3 4 5 6 7 8 9 10 11 12 13 14 15 16 17 18 19 20 21 22 23 24 25 26 27

000
ASUS41 KAKQ 210615
RWRAKQ

REGIONAL WEATHER ROUNDUP
NATIONAL WEATHER SERVICE WAKEFIELD VA
100 AM EST TUE FEB 21 2017

Note: "fair" indicates few or no clouds below 12,000 feet with no
significant weather and/or obstructions to visibility. * = Denotes
station may not report precipitation (e.g., rain,snow,etc.),
thunder or fog.

VAZ042-051-052>054-056-210700-
NORTHERN VIRGINIA

CITY           SKY/WX    TMP DP  RH WIND       PRES   REMARKS
WASH NATIONAL  CLOUDY    50  25  37 NE5       30.32S
DULLES         MOCLDY    45  26  47 E5        30.31R
FORT BELVOIR   CLOUDY    40  31  71 CALM      30.31S
QUANTICO       MOCLDY    43  39  86 NW3       30.32S
FREDERICKSBRG* CLOUDY    42  35  78 CALM      30.30R
STAFFORD*      PTCLDY    39  33  78 CALM      30.34S
WARRENTON      MOCLDY    35  29  82 CALM      30.30S
CULPEPER*      CLOUDY    38  33  82 CALM      30.32R
MANASSAS*      CLOUDY    38  32  79 CALM      30.32R
LEESBURG*      CLOUDY    41  34  75 MISG      30.32R
WINCHESTER     PTCLDY    37  30  75 CALM      30.29S
FRONT ROYAL*   CLOUDY    48  32  53 E5        30.27R
LURAY*         PTCLDY    45  36  70 CALM      30.26S
$$

VAZ048-049-060>072-079>083-210700-
CENTRAL AND SOUTH CENTRAL VIRGINIA

CITY           SKY/WX    TMP DP  RH WIND       PRES   REMARKS
RICHMOND       PTCLDY    44  36  73 CALM      30.29S
CHESTERFIELD*  FAIR      45  23  42 CALM      30.30F
PETERSBURG*    PTCLDY    37  34  87 CALM      30.30F
HANOVER        PTCLDY    40  32  73 CALM      30.30F
TAPPAHANNOCK*  PTCLDY    38  24  57 CALM      30.30F
QUINTON*       FAIR      41  37  86 CALM      30.29F
CHARLOTTSVILLE PTCLDY    50  33  52 N3        30.30R
GORDONSVILLE*  CLOUDY    38  35  88 CALM      30.30S
ORANGE*        PTCLDY    39  32  75 CALM      30.32R
LOUISA*        PTCLDY    43  37  81 CALM      30.28F
BUMPASS*       FAIR      43  34  71 W7        30.29S
FARMVILLE*     CLOUDY    49  39  69 N3        30.27S
CREWE*         FAIR      43  39  87 CALM      30.28S
FORT PICKETT*  FAIR      45  30  55 E6        30.27F
CHASE CITY*    FAIR      49  34  54 E5        30.26S
CLARKSVILLE*   FAIR      50  39  66 E5        30.26R
SOUTH HILL*    CLOUDY    45  37  76 CALM      30.33R
LAWRENCEVILLE* FAIR      47  34  60 CALM      30.27S
EMPORIA*       PTCLDY    43  34  70 NE3       30.30S
$$

VAZ088>098-210700-
SOUTHEAST VIRGINIA

CITY           SKY/WX    TMP DP  RH WIND       PRES   REMARKS
NORFOLK        PTCLDY    45  37  73 NE3       30.28S
VIRGINIA BEACH CLOUDY    40  33  76 CALM      30.28R
NORFOLK NAVAL  PTCLDY    45  38  76 E6        30.30S
WEST POINT*    CLOUDY    35  33  90 CALM      30.32S
SALUDA*        FAIR      37  37  98 CALM      30.30R
NEWPORT NEWS   PTCLDY    39  36  89 CALM      30.29S
LANGLEY AFB    CLOUDY    42  38  86 E5        30.29R
FORT EUSTIS    CLOUDY    40  33  75 CALM      30.27S
WILLIAMSBURG*  PTCLDY    43  37  81 CALM      30.30S
HR EXEC AP*    FAIR      34  28  80 CALM      30.28S
FRANKLIN*      PTCLDY    38  33  81 CALM      30.30R
US460-WAKEFLD  CLOUDY    39  35  86 CALM      30.29R
$$

VAZ020-022-025-037-045-210700-
WEST CENTRAL AND SOUTHWEST VIRGINIA

CITY           SKY/WX    TMP DP  RH WIND       PRES   REMARKS
STAUNTON*      CLOUDY    43  33  69 SE5       30.28S
WAYNESBORO*    CLOUDY    50  32  50 E9G22     30.27R
HOT SPRINGS VA CLOUDY    48  27  43 SE10      30.24F
LYNCHBURG      PTCLDY    51  36  56 E7        30.27R
DANVILLE       CLOUDY    50  40  68 E7        30.23S
SOUTH BOSTON*  FAIR      51  37  59 E5        30.26R
MARTINSVILLE   CLOUDY    43  37  81 CALM      30.25R
ROANOKE        PTCLDY    48  36  63 W5        30.25S
BLACKSBURG     CLOUDY    52  36  54 SE6       30.25S
DUBLIN*        PTCLDY    46  35  63 CALM      30.23F
MARION*        CLOUDY    48  35  60 E3        30.22F
HILLSVILLE*    PTCLDY    50  38  62 CALM      30.21F
RICHLANDS*     FAIR      56  32  40 SE12G18   30.15S
WISE*          CLOUDY    55  30  38 CALM      30.16R
ABINGDON*      CLOUDY    53  34  47 E8        30.16S
$$

MDZ021>025-VAZ099-100-210700-
SOUTHERN MARYLAND AND THE DELMARVA PENINSULA

CITY           SKY/WX    TMP DP  RH WIND       PRES   REMARKS
PATUXENT RIVER CLOUDY    43  35  73 E9        30.29F
BAY BRIDGE APT CLEAR     45  23  42 E9        30.32F
LEONARDTOWN    CLOUDY    45  28  53 CALM      30.31F
DOVER          PTCLDY    36  29  75 NE8       30.34R
GEORGETOWN     PTCLDY    39  29  67 NE7       30.34R
EASTON         CLOUDY    44  23  43 E7        30.36S
CAMBRIDGE      NOT AVBL
SALISBURY      CLEAR     38  32  79 NE7       30.32R
OCEAN CITY     CLEAR     44  32  62 NE9       30.32S
WALLOPS ISLAND PTCLDY    40  36  86 NE7       30.32R
ACCOMACK*      CLOUDY    39  36  91 E3        30.30S
$$

NCZ012>017-030>032-210700-
NORTH CENTRAL AND EASTERN NORTH CAROLINA

CITY           SKY/WX    TMP DP  RH WIND       PRES   REMARKS
ROANOKE RAPIDS FAIR      46  39  76 CALM      30.28R
RALEIGH        MOCLDY    57  37  47 E10       30.23S
ELIZABETH CITY CLOUDY    45  39  79 NE5       30.28S
AHOSKIE*         N/A     45  37  76 CALM      30.29S
EDENTON*       CLOUDY    44  40  86 N3        30.30R
CURRITUCK*     CLOUDY    49  41  75 NE6       30.28S
KILL DEVIL HLS NOT AVBL
MANTEO         CLOUDY    47  44  88 E9        30.27S
CAPE HATTERAS  PTCLDY    54  45  71 NE7       30.24S
TARBORO*       NOT AVBL
GOLDSBORO      PTCLDY    49  43  80 NE3       30.24R
WASHINGTON     PTCLDY    44  38  77 E6        30.26F
GREENVILLE     CLOUDY    46  37  71 CALM      30.28R
NEW BERN       PTCLDY    47  44  90 NE5       30.25F
WILMINGTON     CLOUDY    54  48  80 E8        30.23R
$$

VAZ048-210700-
ELSEWHERE

CITY           SKY/WX    TMP DP  RH WIND       PRES   REMARKS
HARRISBURG PA  CLOUDY    40  15  36 CALM      30.32F
BALTIMORE      PTCLDY    45  21  38 NE12      30.31F
ANNAPOLIS      PTCLDY    47  26  44 E9        30.31S
ANDREWS AFB    CLOUDY    47  22  37 E12       30.29S
PHILADELPHIA   CLEAR     39  15  37 CALM      30.37R
HENDERSON NC   PTCLDY    46  37  70 E7        30.26R
GREENSBORO     MOCLDY    57  37  47 CALM      30.21R
ROCKY MOUNT    PTCLDY    49  40  71 CALM      30.27R
$$

VAZ100-210700-
MARINE

STATION/POSITION TIME  TEMP    WIND        PRES    WAVE   SWELL
                       AIR SEA DIR/SP/G            HT/PER HT/PER
                 (UTC) (F)     (DEG/KT/KT) (MB)    (FT/S) (FT/S)
CAPE MAY NJ      0548      41   60/  9/ 13 1026.8S
LEWES DE         0548      43   80/ 11/ 13 1027.2R
OCEAN-CITY-INLET 0542      44   70/  6/ 10 1027.2S
WACHAPREAGUE VA  0548      50   50/  6/  8 1025.9F
THOMAS POINT MD  0600   46 43   70/ 12/ 13   N/A
GOOSES REEF MD   0600   46 42  100/ 14/ 16 1026.3    1/ 2
COVE POINT MD    0548           90/ 15/ 17 1026.4F
SOLOMONS ISLAND  0542      44   60/  9/ 12   N/A
BISHOPS HEAD MD  0548      48   60/  8/ 10 1026.3F
PINEY POINT MD   0548          140/  2/  2   N/A
POTOMAC MD       0600   44 43  110/  4/  6 1025.0    0
CAMBRIDGE MD     0548      43   50/  9/ 10 1025.7F
LEWISETTA VA     0548      47  160/  3/  3 1025.7S
RAPPAHANNOCK LGT 0548           70/  8/  9 1026.3F
YORK RVR RNG VA  0548           90/  5/  5 1025.1R
YORKTOWN VA      0548      46   80/  3/  4 1025.5R
JAMESTOWN VA     0600   47 49   90/  2/  4   N/A     0
DOMINION TERM VA 0548           80/  5/  7 1025.7R
KIPTOPEKE VA     0548      46   90/  2/  3   N/A
CHES BAY BRIDGE  0548      46   60/  7/  7 1025.5R
CAPE HENRY VA    0548           80/  5/  5   N/A
WILLOUBY STN VA  0548           80/  7/  8 1026.3S
S CRANEY ISL VA  0548           70/  4/  5 1025.4R
CAPE HENRY BUOY  0542      47                N/A     2/ 5
OFFSHORE WE BUOY 0551      47                N/A     2/ 5
64NM E OF VA BCH 0550   53 53   60/ 16/ 19 1024.6R   4/ 5   2/ 7
DUCK PIER NC     0548      49   40/  9/ 10 1024.6R
44100 DUCK FRF   0535      48                N/A     3/ 6
44056 DUCK FRF   0530      49                N/A     2/ 5
OREGON INLET NC  0542      51   30/  7/  9 1024.6R
HATTERAS NC      0548      58   40/  6/ 10 1023.8R
DIAMOND SHLS NC  0550   60 76   50/ 21/ 25 1023.0F   7/ 9
CAPE LOOKOUT NC  0600   54      20/ 10/ 12 1023.3S
$$




USA.gov is the U.S. government's official web portal to all federal, state and local government web resources and services.